Weather History for White Plains, NY

Change the Weather History Date:

Friday, August 2, 2013

  Actual Average Record
Temperature  
Mean Temperature 72 °F -  
Max Temperature 82 °F 80 °F 98 °F (1975)
Min Temperature 64 °F 63 °F 56 °F (1992)
Cooling Degree Days 8    
Growing Degree Days 22 (Base 50)    
Moisture  
Dew Point 62 °F    
Average Humidity 69    
Maximum Humidity 96    
Minimum Humidity 43    
Precipitation  
Precipitation 0.01 in - - ()
Sea Level Pressure  
Sea Level Pressure 29.86 in    
Wind  
Wind Speed 5 mph (WNW)    
Max Wind Speed 10 mph    
Max Gust Speed 18 mph    
Visibility 9 miles    
Events Rain    
Averages and records for this station are not official NWS values.
T = Trace of Precipitation, MM = Missing Value Source: NWS Daily Summary

Daily Weather History Graph

Daily Weather History Graph

Search for Another Location

Airport:

Trip Planner

Search our weather history database for the weather conditions in past years. The results will help you decide how hot, cold, wet, or windy it might be!

Date:

Astronomy

Aug. 02, 2013 Rise Set
Actual Time 5:51 AM EDT 8:09 PM EDT
Civil Twilight 5:20 AM EDT 8:40 PM EDT
Nautical Twilight 4:42 AM EDT 9:18 PM EDT
Astronomical Twilight 4:00 AM EDT 10:00 PM EDT
Moon 2:10 AM EDT (8/2) 5:05 PM EDT (8/2)
Length of Visible Light 15h 19m
Length of Day
14h 17m
Waning Crescent, 16% of the Moon is Illuminated
Aug 2
Waning Crescent
Aug 6
New
Aug 14
First Quarter
Aug 20
Full
Aug 28
Last Quarter

Hourly Weather History & Observations

Time (EDT) Temp. Heat Index Dew Point Humidity Pressure Visibility Wind Dir Wind Speed Gust Speed Precip Events Conditions
12:00 AM 69.8 °F - 66.2 °F 88% 29.84 in 3.0 mi WSW 4.6 mph - 0.00 in Rain Light Rain
12:56 AM 69.1 °F - 66.9 °F 93% 29.82 in 3.0 mi West 3.5 mph - 0.01 in   Overcast
1:56 AM 68.0 °F - 66.0 °F 93% 29.81 in 6.0 mi West 3.5 mph - N/A   Overcast
2:56 AM 68.0 °F - 66.0 °F 93% 29.79 in 6.0 mi Calm Calm - N/A   Overcast
3:56 AM 68.0 °F - 66.0 °F 93% 29.79 in 9.0 mi NNW 3.5 mph - N/A   Overcast
4:56 AM 66.0 °F - 64.0 °F 93% 29.81 in 9.0 mi NW 4.6 mph - N/A   Overcast
5:56 AM 64.0 °F - 63.0 °F 96% 29.83 in 4.0 mi NNW 3.5 mph - N/A   Partly Cloudy
6:56 AM 66.0 °F - 64.0 °F 93% 29.86 in 8.0 mi NW 5.8 mph - N/A   Clear
7:56 AM 69.1 °F - 64.0 °F 84% 29.87 in 10.0 mi NW 6.9 mph - N/A   Clear
8:56 AM 71.1 °F - 63.0 °F 75% 29.87 in 10.0 mi NW 5.8 mph - N/A   Clear
9:56 AM 73.0 °F - 64.0 °F 73% 29.88 in 10.0 mi NW 5.8 mph - N/A   Clear
10:56 AM 75.0 °F - 63.0 °F 66% 29.89 in 10.0 mi NW 8.1 mph - N/A   Partly Cloudy
11:56 AM 77.0 °F - 63.0 °F 62% 29.89 in 10.0 mi WNW 8.1 mph - N/A   Scattered Clouds
12:56 PM 79.0 °F - 61.0 °F 54% 29.88 in 10.0 mi West 10.4 mph - N/A   Scattered Clouds
1:56 PM 80.1 °F 80.6 °F 57.9 °F 47% 29.87 in 10.0 mi Variable 3.5 mph - N/A   Mostly Cloudy
2:56 PM 80.1 °F 80.7 °F 59.0 °F 48% 29.87 in 10.0 mi WSW 8.1 mph - N/A   Scattered Clouds
3:56 PM 81.0 °F 81.3 °F 59.0 °F 47% 29.85 in 10.0 mi West 6.9 mph - N/A   Mostly Cloudy
4:56 PM 80.1 °F 80.2 °F 55.9 °F 43% 29.86 in 10.0 mi WSW 8.1 mph 18.4 mph N/A   Scattered Clouds
5:56 PM 78.1 °F - 57.0 °F 48% 29.86 in 10.0 mi West 5.8 mph - N/A   Mostly Cloudy
6:56 PM 79.0 °F - 57.9 °F 48% 29.85 in 10.0 mi West 6.9 mph - N/A   Scattered Clouds
7:56 PM 75.9 °F - 57.0 °F 52% 29.87 in 10.0 mi Variable 5.8 mph - N/A   Scattered Clouds
8:56 PM 75.0 °F - 57.9 °F 55% 29.88 in 10.0 mi West 3.5 mph - N/A   Overcast
9:56 PM 73.9 °F - 59.0 °F 59% 29.89 in 10.0 mi West 3.5 mph - N/A   Clear
10:56 PM 73.0 °F - 60.1 °F 64% 29.90 in 10.0 mi West 3.5 mph - N/A   Clear
11:56 PM 71.1 °F - 60.1 °F 68% 29.90 in 10.0 mi West 3.5 mph - N/A   Clear